This demonstration page uses our WeatherBlox Daily Observations layout. Learn more.

Left ArrowRight Arrow

39.51506, -84.39828

Hourly Observations for October 1, 2016

Temp ( °F °C ) Dew Point ( °F °C ) Humidity (%) Winds ( mph kmh ) Pressure ( in mb ) Visibility ( mi km ) Precip ( " mm )
12:15 am 00:15 Mostly Cloudy with Mist and Fog 55 12.8 51 10.3 85 85 N N/A 30.03 1017 1 1 N/A
12:35 am 00:35 Mostly Cloudy with Fog 55 12.5 50 10 85 85 N N/A 30.03 1017 1 1 N/A
12:55 am 00:55 Mostly Cloudy with Mist and Fog 55 12.5 50 10 85 85 N N/A 30.06 1018 1 1 N/A
1:15 am 01:15 Partly Cloudy with Mist and Fog 55 12.5 50 10 85 85 N N/A 30.03 1017 3 4 N/A
1:35 am 01:35 Partly Cloudy with Mist and Fog 55 12.5 50 10 85 85 N N/A 30.03 1017 1 2 N/A
1:55 am 01:55 Partly Cloudy with Mist and Fog 55 12.5 50 10 85 85 N N/A 30.03 1017 3 5 N/A
2:15 am 02:15 Mostly Cloudy with Mist and Fog 55 12.5 50 10 85 85 N N/A 30.03 1017 1 1 N/A
2:35 am 02:35 Cloudy with Mist and Fog 55 12.5 50 10 85 85 N N/A 30.03 1017 1 1 N/A
2:55 am 02:55 Partly Cloudy with Mist and Fog 55 12.5 50 10 85 85 N 3 6 30.03 1017 5 8 N/A
3:15 am 03:15 Partly Cloudy with Mist and Fog 55 12.5 50 10 85 85 N N/A 30.03 1017 4 6 N/A
3:35 am 03:35 Mostly Cloudy with Mist and Fog 55 12.5 50 10 85 85 N N/A 30.06 1018 5 8 N/A
3:55 am 03:55 Cloudy with Drizzle 55 12.5 50 10 85 85 NNE 3 6 30.03 1017 5 8 N/A
4:15 am 04:15 Cloudy with Light Rain 55 12.5 50 10 85 85 N N/A 30.03 1017 4 6 N/A
4:35 am 04:35 Cloudy with Mist and Fog 55 12.5 50 10 85 85 N N/A 30.03 1017 4 6 N/A
4:55 am 04:55 Cloudy with Drizzle 55 13 51 10.6 85 85 N 3 6 30.03 1017 5 8 N/A
5:15 am 05:15 Cloudy with Mist and Fog 56 13.6 52 11.1 85 85 N N/A 30.03 1017 5 8 N/A
5:35 am 05:35 Cloudy with Haze 57 13.8 52 11.3 85 85 N N/A 30.03 1017 5 8 N/A
5:55 am 05:55 Cloudy 57 13.8 52 11.3 85 85 N N/A 30.03 1017 7 11 N/A
6:15 am 06:15 Cloudy 57 13.8 52 11.3 85 85 N N/A 30.03 1017 7 11 N/A
6:35 am 06:35 Cloudy 57 13.8 52 11.3 85 85 N N/A 30.03 1017 10 16 N/A
6:55 am 06:55 Cloudy 57 13.8 52 11 83 83 ESE 3 6 30.06 1018 10 16 N/A
7:15 am 07:15 Cloudy 57 13.8 52 11 83 83 ESE 5 7 30.06 1018 10 16 N/A
7:35 am 07:35 Cloudy 57 13.8 51 10.7 82 82 SE 6 9 30.06 1018 10 16 N/A
7:55 am 07:55 Cloudy 57 13.8 51 10.6 81 81 SE 5 7 30.06 1018 10 16 N/A
8:15 am 08:15 Cloudy 57 13.8 51 10.5 81 81 SSE 5 7 30.06 1018 10 16 N/A
8:35 am 08:35 Cloudy 58 14.2 52 11 81 81 ENE 5 7 30.06 1018 10 16 N/A
8:55 am 08:55 Cloudy 58 14.4 52 11.1 81 81 SSE 5 7 30.06 1018 10 16 N/A
9:15 am 09:15 Cloudy 60 15.3 53 11.7 79 79 SSE 6 9 30.06 1018 10 16 N/A
9:35 am 09:35 Cloudy 60 15.3 53 11.6 79 79 S 7 11 30.06 1018 10 16 N/A
9:55 am 09:55 Cloudy 60 15.3 53 11.7 79 79 SSW 8 13 30.09 1019 10 16 N/A
10:15 am 10:15 Cloudy 60 15.3 53 11.5 78 78 S 6 9 30.06 1018 10 16 N/A
10:35 am 10:35 Cloudy 60 15.5 52 11.2 76 76 S 9 15 30.09 1019 10 16 N/A
10:55 am 10:55 Cloudy 61 16 52 11.1 73 73 S 7 11 30.03 1017 10 16 N/A
11:15 am 11:15 Cloudy 61 16 52 11.1 73 73 S 9 15 30.09 1019 10 16 N/A
11:35 am 11:35 Mostly Cloudy 62 16.6 52 11 70 70 S 9 15 30.06 1018 10 16 N/A
11:55 am 11:55 Mostly Cloudy 64 17.7 52 11.3 66 66 SSW 6 9 30.03 1017 10 16 N/A
12:15 pm 12:15 Mostly Cloudy 63 17.1 51 10.7 66 66 SSW 10 17 30.03 1017 10 16 N/A
12:35 pm 12:35 Cloudy 64 18 52 10.9 63 63 SSW 8 13 30.03 1017 10 16 N/A
12:55 pm 12:55 Cloudy 64 18 51 10.4 61 61 SSW 9 15 30.03 1017 10 16 N/A
1:15 pm 13:15 Mostly Cloudy 69 20.5 53 11.4 56 56 SSW 9 15 30.03 1017 10 16 N/A
1:35 pm 13:35 Mostly Cloudy 67 19.4 52 10.9 58 58 S 9 15 30.03 1017 10 16 N/A
1:55 pm 13:55 Mostly Cloudy 68 19.9 52 10.9 56 56 SSW 7 11 30.00 1016 10 16 N/A
2:15 pm 14:15 Mostly Cloudy 69 20.8 54 12 57 57 S 7 11 30.00 1016 10 16 N/A
2:35 pm 14:35 Mostly Cloudy 69 20.3 53 11.6 58 58 SSW 7 11 30.00 1016 10 16 N/A
2:55 pm 14:55 Mostly Cloudy 69 20.8 53 11.4 55 55 SW 5 7 30.00 1016 10 16 N/A
3:15 pm 15:15 Mostly Cloudy 69 20.8 52 11.1 54 54 SW 10 17 30.00 1016 10 16 N/A
3:35 pm 15:35 Mostly Cloudy 69 20.8 53 11.8 57 57 SW 6 9 30.00 1016 10 16 N/A
3:55 pm 15:55 Partly Cloudy 69 20.8 52 10.9 53 53 WSW 7 11 30.00 1016 10 16 N/A
4:15 pm 16:15 Partly Cloudy 69 20.8 53 11.5 55 55 SSW 6 9 30.00 1016 10 16 N/A
4:35 pm 16:35 Partly Cloudy 69 20.8 50 10.2 51 51 SSW 8 13 30.00 1016 10 16 N/A
4:55 pm 16:55 Sunny 69 20.8 51 10.4 52 52 SW 10 17 30.00 1016 10 16 N/A
5:15 pm 17:15 Partly Cloudy 69 20.8 51 10.5 52 52 SW 9 15 30.00 1016 10 16 N/A
5:35 pm 17:35 Partly Cloudy 69 20.8 51 10.5 52 52 SW 7 11 30.00 1016 10 16 N/A
5:55 pm 17:55 Partly Cloudy 69 20.8 53 11.8 57 57 SW 3 6 30.00 1016 10 16 N/A
6:15 pm 18:15 Sunny 67 19.5 53 11.8 61 61 WSW 3 6 30.00 1016 10 16 N/A
6:35 pm 18:35 Sunny 65 18.2 54 12 67 67 N N/A 30.00 1016 10 16 N/A
6:55 pm 18:55 Sunny 64 18 55 12.7 71 71 N N/A 30.00 1016 10 16 N/A
7:15 pm 19:15 Mostly Cloudy 64 18 55 12.7 71 71 SW 3 6 30.00 1016 10 16 N/A
7:35 pm 19:35 Mostly Cloudy 62 16.6 54 12.4 76 76 N N/A 30.00 1016 10 16 N/A
7:55 pm 19:55 Cloudy 64 17.7 55 12.8 73 73 N N/A 30.00 1016 10 16 N/A
8:15 pm 20:15 Cloudy 62 16.4 55 12.6 78 78 N N/A 30.00 1016 10 16 N/A
8:35 pm 20:35 Cloudy 62 16.6 55 12.7 78 78 N N/A 30.00 1016 10 16 N/A
8:55 pm 20:55 Cloudy 61 16 55 12.6 80 80 N N/A 30.00 1016 10 16 N/A
9:15 pm 21:15 Cloudy 61 16 55 12.7 81 81 N N/A 30.00 1016 10 16 N/A
9:35 pm 21:35 Cloudy 61 16 55 12.7 81 81 N N/A 30.00 1016 10 16 N/A
9:55 pm 21:55 Cloudy 61 16 55 12.7 81 81 N N/A 30.00 1016 10 16 N/A
10:15 pm 22:15 Cloudy with Rain 64 18 55 13 73 73 S 6 9 30.00 1016 10 16 N/A
10:35 pm 22:35 Cloudy 64 18 55 12.9 72 72 S 6 9 30.00 1016 10 16 N/A
10:55 pm 22:55 Cloudy 63 17.4 55 12.8 75 75 S 5 7 30.00 1016 10 16 N/A
11:15 pm 23:15 Cloudy with Rain 62 16.7 55 13 79 79 W 5 7 30.00 1016 7 11 N/A
11:35 pm 23:35 Cloudy with Light Rain 61 16 55 13 83 83 WSW 5 7 30.00 1016 7 11 N/A
11:55 pm 23:55 Cloudy 62 16.6 56 13.3 81 81 SSW 9 15 30.00 1016 10 16 N/A

Powered by AerisWeather